[[{"header":{"parameterUnit":"m.s-1","parameterCategory":1,"la1":30.2991,"la2":30.254,"lo1":-89.0895,"lo2":-89.0444,"dy":0.0017,"dx":0.0017,"nx":28,"ny":28,"refTime":"2025-02-08T09:00:00:Z","depth":0,"parameterNumber":2,"parameterNumberName":"U-component_of_WINDS"},"data":[0,0,0,0,0,0,0,0,0,0,0,0,0,0,0,0,0,0,0,0,0,0,0,0,0,0,0,0,0,0,0,0,0,0,0,0,0,0,0,0,0,0,0,0,0,0,0,0,0,0,0,0,0,0,0,0,0,0,-1.8957,-1.8957,0,-1.8942,-1.8942,-1.8941,-1.8898,-1.8897,-1.8896,-1.8895,-1.8879,-1.888,-1.888,0,0,0,0,0,0,0,0,0,0,0,0,0,-1.895,-1.8951,-1.8957,-1.8957,-1.8957,-1.8942,-1.8942,-1.8941,-1.8898,-1.8897,-1.8896,-1.8895,-1.8879,-1.888,-1.888,0,0,0,0,0,0,0,0,0,0,0,0,0,-1.8946,-1.8951,-1.8957,-1.8934,-1.8931,-1.8942,-1.8942,-1.8941,-1.8898,-1.8897,-1.8896,-1.8894,-1.8879,-1.888,-1.888,-1.8912,0,0,-1.8882,-1.8883,0,0,0,0,0,0,0,0,-1.8946,-1.8946,-1.8937,-1.8935,-1.8933,-1.892,-1.8933,-1.8932,-1.8899,-1.8911,-1.8895,-1.8894,-1.8894,-1.8893,-1.8894,-1.8912,-1.8911,-1.8882,-1.8883,-1.8883,-1.8883,0,0,0,0,0,0,0,-1.8947,-1.8947,-1.8951,-1.8937,-1.8934,-1.8924,-1.8922,-1.8933,-1.8911,-1.891,-1.8907,-1.8905,-1.8893,-1.8893,-1.8893,-1.8911,-1.8882,-1.8883,-1.8883,-1.8884,-1.8956,-1.8957,0,0,0,0,0,0,-1.895,-1.8947,-1.8952,-1.8951,-1.8936,-1.8925,-1.8923,-1.8926,-1.891,-1.8907,-1.8907,-1.8903,-1.8893,-1.8892,-1.8892,-1.8929,-1.8883,-1.8884,-1.8884,-1.8954,-1.8956,-1.8958,0,0,0,0,0,0,-1.895,-1.8951,-1.8952,-1.8948,-1.8947,-1.8927,-1.8931,-1.8926,-1.8927,-1.8908,-1.8904,-1.8911,-1.8891,-1.8891,-1.8908,-1.8928,-1.8884,-1.8885,-1.8952,-1.8955,-1.8957,-1.9003,0,0,0,0,0,0,-1.895,-1.8951,-1.8963,-1.8949,-1.8948,-1.8968,-1.8932,-1.8927,-1.8928,-1.8924,-1.8911,-1.8908,-1.889,-1.8907,-1.8909,-1.8928,-1.8885,-1.895,-1.8953,-1.8956,-1.9,-1.9007,-1.9013,0,0,0,0,0,-1.895,-1.8976,-1.8964,-1.8965,-1.8962,-1.8969,-1.8969,-1.8948,-1.893,-1.8941,-1.893,-1.8908,-1.8926,-1.8909,-1.891,-1.893,-1.8949,-1.8952,-1.8956,-1.8997,-1.9005,-1.9013,0,0,0,0,0,0,-1.8993,-1.8974,-1.896,-1.8982,-1.8978,-1.8962,-1.8976,-1.8958,-1.8959,-1.8955,-1.8929,-1.8927,-1.8947,-1.8941,-1.8923,-1.8961,-1.8934,-1.8938,-1.8965,-1.8973,-1.8979,-1.898,-1.8886,0,0,0,0,0,-1.9005,-1.9013,-1.8996,-1.9017,-1.9016,-1.8997,-1.8999,-1.8984,-1.8978,-1.8976,-1.8965,-1.8961,-1.8965,-1.8969,-1.8972,-1.8999,-1.8996,-1.9014,-1.902,-1.9026,-1.9029,-1.9043,-1.9051,-1.8969,-1.8969,-1.8969,0,0,-1.903,-1.9021,-1.9027,-1.9026,-1.902,-1.9029,-1.8995,-1.9005,-1.9012,-1.8977,-1.8993,-1.8985,-1.8978,-1.9001,-1.901,-1.8996,-1.9051,-1.903,-1.9034,-1.9035,-1.9048,-1.9055,-1.9062,-1.8971,-1.8971,-1.897,0,0,-1.908,-1.9074,-1.9091,-1.9087,-1.908,-1.9067,-1.9072,-1.9059,-1.9052,-1.9068,-1.9042,-1.905,-1.9058,-1.9054,-1.9054,-1.9104,-1.9085,-1.9106,-1.914,-1.9154,-1.9161,-1.9166,-1.9184,-1.9191,-1.911,-1.911,-1.911,0,-1.9112,-1.9124,-1.9102,-1.9114,-1.9115,-1.9085,-1.9103,-1.91,-1.9094,-1.9096,-1.908,-1.909,-1.9084,-1.9105,-1.9118,-1.9118,-1.9122,-1.9107,-1.9162,-1.9167,-1.9172,-1.9189,-1.9196,-1.9113,-1.9112,-1.9112,-1.9112,0,-1.9163,-1.9172,-1.9187,-1.9183,-1.9185,-1.92,-1.9181,-1.9186,-1.9172,-1.9161,-1.9177,-1.9168,-1.917,-1.9174,-1.9159,-1.9194,-1.9185,-1.9166,-1.9138,-1.9183,-1.9198,-1.9205,-1.9116,-1.9115,-1.9115,-1.9114,0,0,-1.9238,-1.9223,-1.9229,-1.9227,-1.9218,-1.9224,-1.9238,-1.924,-1.9245,-1.9242,-1.9254,-1.9262,-1.9245,-1.9244,-1.9229,-1.9242,-1.9283,-1.9221,-1.9221,-1.9233,-1.9321,-1.9335,-1.9343,-1.9271,-1.9272,-1.9273,-1.9321,0,-1.9285,-1.9308,-1.929,-1.9316,-1.9324,-1.9297,-1.931,-1.9306,-1.9297,-1.9302,-1.9292,-1.9299,-1.9275,-1.9275,-1.9286,-1.9276,-1.93,-1.9272,-1.9281,-1.9281,-1.9283,-1.9351,-1.9365,-1.9412,-1.9327,-1.9328,-1.9329,0,-1.9342,-1.9343,-1.937,-1.936,-1.9363,-1.9374,-1.9375,-1.9381,-1.9376,-1.9369,-1.9369,-1.9351,-1.9365,-1.9338,-1.9357,-1.9338,-1.9341,-1.9336,-1.9338,-1.9337,-1.9307,-1.9352,-1.9426,-1.9433,-1.9338,-1.9338,-1.9337,0,-1.9394,-1.9402,-1.9419,-1.9418,-1.9407,-1.9416,-1.9412,-1.9406,-1.9409,-1.9409,-1.9411,-1.9413,-1.9414,-1.9417,-1.94,-1.9383,-1.9422,-1.9393,-1.9416,-1.9416,-1.9424,-1.9424,-1.9499,-1.9427,-1.9427,-1.9427,-1.9427,0,-1.9447,-1.9465,-1.9442,-1.9453,-1.9473,-1.9452,-1.9472,-1.9465,-1.9461,-1.947,-1.9447,-1.9456,-1.9434,-1.9441,-1.9428,-1.9446,-1.9447,-1.9441,-1.9438,-1.9443,-1.9444,-1.9444,-1.944,-1.9429,-1.9428,-1.9428,-1.9428,0,-1.9508,-1.9493,-1.9511,-1.9499,-1.9497,-1.9512,-1.9502,-1.9512,-1.9502,-1.9514,-1.9516,-1.95,-1.9507,-1.9491,-1.9496,-1.9488,-1.9513,-1.9504,-1.9515,-1.9512,-1.9535,-1.9533,-1.9613,-1.9623,-1.9545,-1.9545,-1.9546,0,-1.9543,-1.9556,-1.9546,-1.9551,-1.9548,-1.9556,-1.9559,-1.954,-1.9544,-1.9541,-1.9551,-1.9557,-1.956,-1.9573,-1.9562,-1.9566,-1.9557,-1.9585,-1.9557,-1.9563,-1.9557,-1.9557,-1.9558,-1.959,-1.9591,-1.9592,-1.9593,0,-1.9606,-1.9599,-1.9604,-1.9607,-1.9611,-1.9612,-1.9612,-1.9617,-1.9597,-1.9603,-1.961,-1.9613,-1.9619,-1.9625,-1.9626,-1.9622,-1.9604,-1.9602,-1.9607,-1.9612,-1.9618,-1.9615,-1.953,-1.96,-1.9599,-1.9598,-1.9598,-1.9598,-1.9655,-1.9666,-1.9661,-1.9668,-1.9666,-1.9666,-1.9675,-1.9667,-1.9673,-1.9676,-1.9665,-1.9675,-1.9671,-1.9672,-1.967,-1.9678,-1.9665,-1.9673,-1.9675,-1.9677,-1.9681,-1.9617,-1.9678,-1.9678,-1.9677,-1.9677,-1.9677,0,-1.9717,-1.9713,-1.972,-1.972,-1.9726,-1.9709,-1.9709,-1.9714,-1.9724,-1.9722,-1.9726,-1.9735,-1.9741,-1.9731,-1.9736,-1.9744,-1.9736,-1.9746,-1.9745,-1.9744,-1.9692,-1.9686,-1.9752,-1.9752,-1.9752,-1.9752,-1.9752,-1.9752,-1.975,-1.9768,-1.976,-1.9777,-1.9773,-1.9783,-1.9784,-1.9785,-1.9783,-1.9795,-1.98,-1.9793,-1.9789,-1.9793,-1.9798,-1.9795,-1.9798,-1.981,-1.9805,-1.9755,-1.9748,-1.9741,-1.9736,-1.9811,-1.9811,-1.9857,-1.9857,-1.9857]},{"header":{"parameterUnit":"m.s-1","parameterCategory":1,"la1":30.2991,"la2":30.254,"lo1":-89.0895,"lo2":-89.0444,"dy":0.0017,"dx":0.0017,"nx":28,"ny":28,"refTime":"2025-02-08T09:00:00:Z","depth":0,"parameterNumber":3,"parameterNumberName":"V-component_of_WINDS"},"data":[0,0,0,0,0,0,0,0,0,0,0,0,0,0,0,0,0,0,0,0,0,0,0,0,0,0,0,0,0,0,0,0,0,0,0,0,0,0,0,0,0,0,0,0,0,0,0,0,0,0,0,0,0,0,0,0,0,0,1.615,1.6151,0,1.6255,1.6257,1.6258,1.629,1.629,1.6289,1.6289,1.6399,1.6402,1.6405,0,0,0,0,0,0,0,0,0,0,0,0,0,1.5981,1.5984,1.615,1.6151,1.6153,1.6255,1.6257,1.6258,1.629,1.629,1.6289,1.6288,1.6398,1.6402,1.6406,0,0,0,0,0,0,0,0,0,0,0,0,0,1.6067,1.5985,1.615,1.6181,1.6185,1.6255,1.6257,1.6258,1.629,1.629,1.6289,1.6288,1.6396,1.6401,1.6406,1.6453,0,0,1.6422,1.6424,0,0,0,0,0,0,0,0,1.6062,1.6073,1.6175,1.6179,1.6183,1.6259,1.6237,1.6324,1.629,1.625,1.6289,1.6288,1.6353,1.6361,1.6383,1.6459,1.6463,1.6422,1.6425,1.6428,1.6429,0,0,0,0,0,0,0,1.6056,1.6069,1.6192,1.6177,1.6182,1.6191,1.6202,1.6254,1.6305,1.6254,1.6256,1.6268,1.6355,1.6378,1.6386,1.6465,1.6422,1.6427,1.643,1.6432,1.6587,1.6588,0,0,0,0,0,0,1.6044,1.6064,1.6188,1.6195,1.6119,1.6195,1.6207,1.6235,1.6304,1.6314,1.6269,1.6269,1.637,1.638,1.639,1.6451,1.6428,1.6432,1.6435,1.6586,1.6587,1.6588,0,0,0,0,0,0,1.6041,1.6055,1.6184,1.613,1.6147,1.6198,1.623,1.6238,1.6261,1.6316,1.6325,1.6283,1.6369,1.6383,1.6438,1.6455,1.6435,1.6439,1.6584,1.6586,1.6587,1.6573,0,0,0,0,0,0,1.6036,1.6054,1.6071,1.613,1.615,1.6229,1.6231,1.624,1.6269,1.6271,1.6331,1.634,1.637,1.643,1.6443,1.6462,1.6443,1.6583,1.6585,1.6587,1.6572,1.6574,1.6575,0,0,0,0,0,1.6029,1.6063,1.6072,1.6087,1.6173,1.623,1.6242,1.6274,1.6271,1.6289,1.6325,1.6339,1.6451,1.6435,1.645,1.6471,1.6582,1.6585,1.6587,1.6571,1.6573,1.6575,0,0,0,0,0,0,1.6005,1.6071,1.6082,1.6135,1.6177,1.6235,1.626,1.6275,1.6319,1.6319,1.6358,1.6371,1.6424,1.6453,1.6434,1.6521,1.6517,1.6523,1.65,1.6503,1.6504,1.6497,1.6448,0,0,0,0,0,1.6006,1.6046,1.6102,1.6144,1.6164,1.6208,1.6235,1.6256,1.6301,1.6319,1.6358,1.6402,1.6448,1.6477,1.6521,1.6576,1.6591,1.6598,1.66,1.6601,1.6605,1.6638,1.6642,1.6596,1.6596,1.6596,0,0,1.6008,1.6049,1.6072,1.614,1.6175,1.6217,1.6223,1.6267,1.6299,1.6326,1.638,1.6411,1.6463,1.6518,1.6544,1.6544,1.6621,1.6604,1.6604,1.6608,1.6641,1.6645,1.6649,1.6597,1.6597,1.6597,0,0,1.6034,1.6069,1.6108,1.6143,1.6195,1.6224,1.6234,1.6291,1.6312,1.6367,1.6389,1.6428,1.6504,1.6541,1.6569,1.661,1.6625,1.6624,1.6632,1.6664,1.6667,1.6671,1.6687,1.6692,1.6628,1.6628,1.6628,0,1.6031,1.6094,1.6127,1.6169,1.6199,1.6225,1.6266,1.6299,1.6363,1.6384,1.6382,1.648,1.6517,1.6582,1.6592,1.6614,1.6627,1.6617,1.6664,1.6668,1.6672,1.6687,1.6693,1.6627,1.6627,1.6627,1.6628,0,1.6088,1.6131,1.6157,1.6218,1.6251,1.6292,1.6333,1.6362,1.6381,1.6411,1.6468,1.6513,1.6568,1.6584,1.6603,1.6653,1.6651,1.6656,1.6653,1.6675,1.6691,1.6697,1.6627,1.6627,1.6627,1.6627,0,0,1.6101,1.618,1.6189,1.6218,1.6278,1.6313,1.6357,1.641,1.6435,1.6479,1.6517,1.6582,1.6588,1.662,1.6644,1.6671,1.6702,1.6673,1.6675,1.6678,1.6761,1.6758,1.6764,1.6712,1.6713,1.6714,1.6757,0,1.6136,1.6214,1.6245,1.6309,1.635,1.6376,1.6414,1.6456,1.6485,1.6526,1.6559,1.6605,1.6608,1.6628,1.6656,1.6692,1.672,1.669,1.675,1.6752,1.6737,1.6772,1.6768,1.6807,1.6764,1.6765,1.6765,0,1.6186,1.623,1.6298,1.6354,1.6373,1.6406,1.6458,1.6496,1.6544,1.6564,1.66,1.6622,1.6671,1.6664,1.6732,1.6711,1.6737,1.6759,1.6761,1.6769,1.676,1.6782,1.682,1.6826,1.6775,1.6774,1.6773,0,1.6191,1.6267,1.6318,1.6341,1.6408,1.6431,1.646,1.6507,1.6538,1.6584,1.6604,1.6655,1.6683,1.6722,1.6758,1.675,1.6823,1.6819,1.6842,1.6841,1.6857,1.6856,1.6901,1.6872,1.6872,1.6872,1.6872,0,1.6227,1.6268,1.6321,1.6352,1.6399,1.6435,1.6481,1.6512,1.6554,1.6593,1.6619,1.6655,1.6699,1.6741,1.677,1.6822,1.6835,1.6853,1.686,1.6851,1.6849,1.687,1.6869,1.6874,1.6873,1.6873,1.6873,0,1.6241,1.6278,1.6335,1.6393,1.6409,1.6441,1.6491,1.6523,1.6554,1.6603,1.6617,1.6665,1.6716,1.6756,1.6822,1.6841,1.6898,1.6905,1.6881,1.6885,1.6906,1.6904,1.6967,1.6978,1.6941,1.6941,1.6941,0,1.6262,1.6294,1.6355,1.6382,1.6411,1.6455,1.6486,1.6523,1.6555,1.6613,1.6638,1.6691,1.6735,1.6816,1.6858,1.6909,1.6919,1.6937,1.6927,1.6917,1.6921,1.6919,1.6923,1.6939,1.6939,1.6939,1.6939,0,1.6295,1.6312,1.6356,1.6406,1.6442,1.6483,1.6525,1.6547,1.6592,1.6626,1.6679,1.6713,1.6781,1.6833,1.6889,1.692,1.6938,1.6942,1.6951,1.6943,1.6928,1.6938,1.6886,1.6941,1.6941,1.6941,1.6941,1.6941,1.6315,1.6345,1.6393,1.6441,1.6476,1.6515,1.6548,1.6583,1.6627,1.6685,1.6704,1.6758,1.6808,1.6884,1.6916,1.696,1.6961,1.6972,1.6975,1.6978,1.6978,1.692,1.697,1.697,1.697,1.697,1.697,0,1.6351,1.6383,1.6427,1.6484,1.6522,1.6534,1.6582,1.6613,1.666,1.6704,1.6747,1.6808,1.6859,1.6905,1.6959,1.6986,1.6995,1.6999,1.6998,1.7005,1.6974,1.6962,1.699,1.699,1.699,1.699,1.699,1.699,1.6374,1.6426,1.6449,1.6519,1.6552,1.6604,1.6631,1.6667,1.6703,1.6769,1.6812,1.6841,1.6886,1.6944,1.6992,1.7004,1.7024,1.7025,1.704,1.701,1.7007,1.7005,1.6994,1.7029,1.7029,1.7068,1.7068,1.7069]}]]